Volver al catálogo

COSMOS 2251 DEB

ActivoLEO
NORAD 37305·DEBRIS·🇷🇺 Russia

Lanzado Jun 16, 1993 desde Plesetsk Cosmodrome

Loading…

Próximos Pases (próximas 24 horas)

TLE

EnvejeciendoSource: Space-Track

Época: Sep 10, 2026, 09:59 UTC

1 37305U 93036BJV 26253.41601524  .00000975  00000-0  33391-3 0  9993
2 37305  73.8702 146.1693 0046138  51.9953 308.5351 14.36987992707682

Sigue COSMOS 2251 DEB en tiempo real con AllMySat

Download on the App Store